Hourly Weather Roundup
Issued by NWS Central Illinois

Home | Current Version | Previous Version | Text Only | Print | Product List | Glossary On
Versions: 1 2 3 4 5 6 7 8 9 10 11 12 13 14 15 16 17 18 19 20 21 22 23 24 25 26 27 28 29 30 31 32 33 34 35 36 37 38 39 40 41 42 43 44 45 46 47 48 49 50
000
NZUS43 KILX 190610
HWRILX

Area Weather Roundup
National Weather Service Lincoln IL
1200 AM CST MON FEB 19 2018

NOTE:  "FAIR" indicates few or no clouds below 12,000 feet, with
       no sigificant weather and/or obstructions to visibility.


CITY           SKY/WX    TMP DP  RH WIND       PRES   REMARKS
Bloomington    CLOUDY    43  35  73 S22       29.85F WCI  34
6HR MIN TEMP:  38; 6HR MAX TEMP:  43;

Champaign      MOCLDY    43  35  73 S18       29.89F WCI  35
6HR MIN TEMP:  35; 6HR MAX TEMP:  43;

Danville       CLOUDY    44  33  64 S15G22    29.90F
6HR MIN TEMP:  37; 6HR MAX TEMP:  44;

Decatur        LGT RAIN  45  38  76 S18G28    29.88F
6HR MIN TEMP:  42; 6HR MAX TEMP:  47; 6HR PCP:  0.01;

Effingham      CLOUDY    48  37  65 SE10      29.96F
6HR MIN TEMP:  44; 6HR MAX TEMP:  48;

Flora          CLOUDY    49  38  65 S13       29.97F
6HR MIN TEMP:  45; 6HR MAX TEMP:  49;

Galesburg      CLOUDY    41  36  82 SE7       29.83F
6HR MIN TEMP:  40; 6HR MAX TEMP:  43;

Jacksonville   CLOUDY    47  37  69 S17G23    29.84R
Lacon          CLOUDY    41  35  80 S7        29.85F
6HR MIN TEMP:  39; 6HR MAX TEMP:  42; 6HR PCP:  0.01;

Lawrenceville  MOCLDY    46  37  71 S9        30.02R
6HR MIN TEMP:  44; 6HR MAX TEMP:  47;

Litchfield     CLOUDY    46  39  75 S15       29.89S
6HR MIN TEMP:  44; 6HR MAX TEMP:  47;

$$


CITY           SKY/WX    TMP DP  RH WIND       PRES   REMARKS
Lincoln        CLOUDY    46  39  77 S15G21    29.85F
6HR MIN TEMP:  39; 6HR MAX TEMP:  46;

Macomb         CLOUDY    41  36  81 S5        29.85S
Mattoon        MOCLDY    46  35  65 S16       29.92F
6HR MIN TEMP:  43; 6HR MAX TEMP:  46;

Mt Carmel AP   CLOUDY    47  37  67 S9        30.01S
6HR MIN TEMP:  41; 6HR MAX TEMP:  47;

Olney-Noble AP CLOUDY    48  33  55 S10G18    29.99F
Paris AP       CLOUDY    45  36  70 S17       29.96F
6HR MIN TEMP:  38; 6HR MAX TEMP:  45;

Peoria         LGT RAIN  42  36  79 S8        29.86R
6HR MIN TEMP:  41; 6HR MAX TEMP:  43; 6HR PCP:  0.02;

Pontiac        MIX PCPN  41  37  88 S24       29.84F WCI  30
6HR MIN TEMP:  38; 6HR MAX TEMP:  41; 6HR PCP:  0.01;

Rantoul        CLOUDY    42  37  79 S14       29.90F
6HR MIN TEMP:  39; 6HR MAX TEMP:  43;

Robinson       MOCLDY    45  35  68 S10       30.01S
6HR MIN TEMP:  42; 6HR MAX TEMP:  45;

Springfield    LGT RAIN  48  39  71 S20G32    29.84F
6HR MIN TEMP:  44; 6HR MAX TEMP:  48; 6HR PCP: TRACE;

Taylorville    CLOUDY    48  38  67 S22G29    29.88S
6HR MIN TEMP:  42; 6HR MAX TEMP:  48;

$$

...REGIONAL REPORTS...


CITY           SKY/WX    TMP DP  RH WIND       PRES   REMARKS
Chicago O`Hare LGT RAIN  40  32  73 S10       29.88R WCI  33
Kankakee       CLOUDY    41  32  68 S15G21    29.89S WCI  34
Moline         CLOUDY    44  34  67 S10       29.79S
Mount Sterling CLOUDY    47  38  71 S9        29.82S
Mount Vernon   CLOUDY    50  39  66 S8        29.98S
Pittsfield     CLOUDY    49  41  73 S16       29.84R
Quincy         CLOUDY    48  38  68 S9        29.81S
Rockford       CLOUDY    37  31  78 S13       29.85F WCI  29
$$


CITY           SKY/WX    TMP DP  RH WIND       PRES   REMARKS
Burlington     CLOUDY    44  31  60 S10       29.79F
Cedar Rapids   CLOUDY    41  30  65 S8        29.74S
Des Moines     CLOUDY    44  33  65 S8        29.70R
Kirksville     CLOUDY    50  41  71 S12       29.77S
Ottumwa        CLOUDY    46  30  53 S12       29.73S
St Louis       CLOUDY    51  43  74 S12G20    29.88S
$$


CITY           SKY/WX    TMP DP  RH WIND       PRES   REMARKS
Terre Haute    MOCLDY    46  35  65 S14       29.98F
Evansville     CLOUDY    49  38  65 SE5       30.04R
Indianapolis   MOCLDY    43  33  68 SE12      30.01F
Lafayette      MOCLDY    43  33  68 S12G18    29.94F
Madison        MOCLDY    36  31  82 MISG      29.82F
Milwaukee      MOCLDY    33  29  85 SE5       29.86F WCI  29
$$





USA.gov is the U.S. government's official web portal to all federal, state and local government web resources and services.